When you browse on this site, cookies collect data to enhance your experience and personalize the content and advertising you see.
Visit our Privacy Policy to learn more. By continuing to use the site, you agree to this use of cookies and data.
  • în România
  • Lista ţărilor
  • Pe 7 zile
  • Temperatura apei
  • Hartă satelitară
  • Meteo pe hartă
  • Widget-uri
  • user-avatar
    Intrare

    Meteo pe oră la Les Pennes-Mirabeau

    Astăzi, 19 Aprilie, Vineri

    Timp Temperatura Precipitaţii Vânt Presiune Umiditate
    00:00 +18°C° 0 mm 4 m/s 757 mmHg 37%
    01:00 +16°C° 0 mm 5 m/s 757 mmHg 41%
    02:00 +16°C° 0 mm 5 m/s 757 mmHg 45%
    03:00 +16°C° 0 mm 6 m/s 757 mmHg 49%
    04:00 +16°C° 0 mm 6 m/s 757 mmHg 50%
    05:00 +16°C° 0 mm 6 m/s 758 mmHg 50%
    06:00 +16°C° 0 mm 6 m/s 758 mmHg 51%
    07:00 +17°C° 0 mm 7 m/s 758 mmHg 44%
    08:00 +20°C° 0 mm 7 m/s 758 mmHg 36%
    09:00 +21°C° 0 mm 8 m/s 759 mmHg 28%
    10:00 +22°C° 0 mm 8 m/s 759 mmHg 27%
    11:00 +23°C° 0 mm 8 m/s 759 mmHg 25%
    12:00 +24°C° 0 mm 8 m/s 759 mmHg 24%
    13:00 +23°C° 0 mm 8 m/s 759 mmHg 24%
    14:00 +23°C° 0 mm 8 m/s 759 mmHg 25%
    15:00 +23°C° 0 mm 8 m/s 759 mmHg 26%
    16:00 +22°C° 0 mm 7 m/s 759 mmHg 28%
    17:00 +21°C° 0 mm 6 m/s 759 mmHg 30%
    18:00 +20°C° 0 mm 6 m/s 759 mmHg 32%
    19:00 +20°C° 0 mm 5 m/s 759 mmHg 35%
    20:00 +19°C° 0 mm 4 m/s 760 mmHg 38%
    21:00 +18°C° 0 mm 4 m/s 760 mmHg 41%
    22:00 +18°C° 0 mm 3 m/s 760 mmHg 43%
    23:00 +17°C° 0 mm 3 m/s 760 mmHg 45%

    Mâine, 20 Aprilie, Sâmbătă

    Timp Temperatura Precipitaţii Vânt Presiune Umiditate
    00:00 +17°C° 0 mm 3 m/s 759 mmHg 47%
    01:00 +16°C° 0 mm 2 m/s 759 mmHg 48%
    02:00 +16°C° 0 mm 2 m/s 759 mmHg 49%
    03:00 +16°C° 0 mm 2 m/s 759 mmHg 51%
    04:00 +16°C° 0 mm 2 m/s 759 mmHg 50%
    05:00 +16°C° 0 mm 2 m/s 758 mmHg 50%
    06:00 +16°C° 0 mm 2 m/s 758 mmHg 50%
    07:00 +17°C° 0 mm 3 m/s 758 mmHg 44%
    08:00 +19°C° 0 mm 4 m/s 758 mmHg 38%
    09:00 +21°C° 0 mm 5 m/s 758 mmHg 32%
    10:00 +22°C° 0 mm 5 m/s 758 mmHg 29%
    11:00 +23°C° 0 mm 5 m/s 757 mmHg 26%
    12:00 +24°C° 0 mm 6 m/s 757 mmHg 23%
    13:00 +24°C° 0 mm 6 m/s 757 mmHg 23%
    14:00 +24°C° 0 mm 7 m/s 756 mmHg 24%
    15:00 +24°C° 0 mm 7 m/s 756 mmHg 24%
    16:00 +23°C° 0 mm 7 m/s 756 mmHg 27%
    17:00 +22°C° 0 mm 7 m/s 756 mmHg 29%
    18:00 +21°C° 0 mm 7 m/s 756 mmHg 32%
    19:00 +21°C° 0 mm 7 m/s 756 mmHg 33%
    20:00 +20°C° 0 mm 6 m/s 756 mmHg 35%
    21:00 +20°C° 0 mm 6 m/s 756 mmHg 36%
    22:00 +20°C° 0 mm 4 m/s 756 mmHg 38%
    23:00 +19°C° 0 mm 3 m/s 756 mmHg 39%

    Poimâine, 21 Aprilie, Duminică

    Timp Temperatura Precipitaţii Vânt Presiune Umiditate
    00:00 +19°C° 0 mm 2 m/s 756 mmHg 41%
    01:00 +19°C° 0 mm 2 m/s 755 mmHg 41%
    02:00 +18°C° 0 mm 3 m/s 755 mmHg 42%
    03:00 +18°C° 0 mm 3 m/s 755 mmHg 43%
    04:00 +18°C° 0 mm 4 m/s 754 mmHg 43%
    05:00 +17°C° 0 mm 5 m/s 754 mmHg 43%
    06:00 +17°C° 0 mm 6 m/s 754 mmHg 43%
    07:00 +17°C° 0 mm 7 m/s 754 mmHg 40%
    08:00 +18°C° 0 mm 7 m/s 754 mmHg 37%
    09:00 +18°C° 0 mm 7 m/s 754 mmHg 34%
    10:00 +19°C° 0 mm 6 m/s 753 mmHg 36%
    11:00 +19°C° 0 mm 6 m/s 753 mmHg 37%
    12:00 +19°C° 0 mm 5 m/s 753 mmHg 38%
    13:00 +20°C° 0 mm 5 m/s 752 mmHg 36%
    14:00 +21°C° 0 mm 4 m/s 752 mmHg 34%
    15:00 +22°C° 0 mm 4 m/s 751 mmHg 31%
    16:00 +22°C° 0 mm 4 m/s 751 mmHg 32%
    17:00 +21°C° 0 mm 4 m/s 751 mmHg 33%
    18:00 +21°C° 0 mm 4 m/s 750 mmHg 34%
    19:00 +20°C° 0 mm 4 m/s 750 mmHg 35%
    20:00 +20°C° 0 mm 4 m/s 750 mmHg 37%
    21:00 +19°C° 0 mm 4 m/s 750 mmHg 38%
    22:00 +18°C° 0 mm 4 m/s 749 mmHg 38%
    23:00 +17°C° 0 mm 5 m/s 749 mmHg 39%

    22 Aprilie, Luni

    Timp Temperatura Precipitaţii Vânt Presiune Umiditate
    00:00 +17°C° 0 mm 5 m/s 748 mmHg 40%
    01:00 +16°C° 0 mm 5 m/s 747 mmHg 40%
    02:00 +16°C° 0 mm 5 m/s 746 mmHg 40%
    03:00 +16°C° 0 mm 5 m/s 745 mmHg 39%
    04:00 +17°C° 0 mm 4 m/s 745 mmHg 39%
    05:00 +17°C° 0 mm 4 m/s 745 mmHg 39%
    06:00 +17°C° 0 mm 4 m/s 744 mmHg 38%
    07:00 +19°C° 0 mm 4 m/s 744 mmHg 34%
    08:00 +20°C° 0 mm 5 m/s 743 mmHg 31%
    09:00 +22°C° 0 mm 5 m/s 743 mmHg 27%
    10:00 +23°C° 0 mm 7 m/s 742 mmHg 25%
    11:00 +24°C° 0 mm 8 m/s 742 mmHg 23%
    12:00 +27°C° 0 mm 9 m/s 741 mmHg 22%
    13:00 +26°C° 0 mm 10 m/s 741 mmHg 22%
    14:00 +26°C° 0 mm 10 m/s 740 mmHg 23%
    15:00 +26°C° 0 mm 11 m/s 739 mmHg 24%
    16:00 +23°C° 0 mm 10 m/s 739 mmHg 27%
    17:00 +22°C° 0 mm 10 m/s 739 mmHg 31%
    18:00 +21°C° 0 mm 9 m/s 739 mmHg 35%
    19:00 +21°C° 0.1 mm 8 m/s 739 mmHg 36%
    20:00 +20°C° 0.1 mm 6 m/s 740 mmHg 37%
    21:00 +20°C° 0.1 mm 5 m/s 740 mmHg 38%
    22:00 +19°C° 0 mm 4 m/s 740 mmHg 41%
    23:00 +19°C° 0 mm 3 m/s 739 mmHg 44%

    23 Aprilie, Marţi

    Timp Temperatura Precipitaţii Vânt Presiune Umiditate
    00:00 +18°C° 0 mm 2 m/s 739 mmHg 46%
    01:00 +18°C° 0 mm 2 m/s 739 mmHg 48%
    02:00 +19°C° 0 mm 1 m/s 739 mmHg 50%
    03:00 +19°C° 0 mm 1 m/s 738 mmHg 52%
    04:00 +18°C° 0 mm 1 m/s 739 mmHg 55%
    05:00 +18°C° 0 mm 1 m/s 739 mmHg 58%
    06:00 +18°C° 0 mm 1 m/s 739 mmHg 61%
    07:00 +19°C° 0 mm 1 m/s 739 mmHg 57%
    08:00 +20°C° 0 mm 1 m/s 740 mmHg 54%
    09:00 +21°C° 0 mm 1 m/s 740 mmHg 51%
    10:00 +20°C° 0 mm 3 m/s 740 mmHg 50%
    11:00 +21°C° 0 mm 4 m/s 741 mmHg 49%
    12:00 +21°C° 0 mm 6 m/s 741 mmHg 49%
    13:00 +21°C° 0 mm 6 m/s 741 mmHg 51%
    14:00 +21°C° 0 mm 7 m/s 741 mmHg 53%
    15:00 +21°C° 0 mm 7 m/s 742 mmHg 56%
    16:00 +20°C° 0 mm 7 m/s 742 mmHg 61%
    17:00 +18°C° 0 mm 7 m/s 742 mmHg 66%
    18:00 +17°C° 0 mm 6 m/s 743 mmHg 71%
    19:00 +17°C° 0 mm 6 m/s 744 mmHg 73%
    20:00 +17°C° 0 mm 6 m/s 744 mmHg 74%
    21:00 +16°C° 0 mm 6 m/s 745 mmHg 76%
    22:00 +16°C° 0 mm 7 m/s 745 mmHg 77%
    23:00 +16°C° 0 mm 7 m/s 746 mmHg 78%

    24 Aprilie, Miercuri

    Timp Temperatura Precipitaţii Vânt Presiune Umiditate
    00:00 +16°C° 0 mm 7 m/s 746 mmHg 80%
    01:00 +16°C° 0 mm 7 m/s 746 mmHg 79%
    02:00 +16°C° 0 mm 7 m/s 746 mmHg 79%
    03:00 +16°C° 0 mm 8 m/s 747 mmHg 79%
    04:00 +16°C° 0 mm 7 m/s 747 mmHg 78%
    05:00 +16°C° 0 mm 7 m/s 747 mmHg 77%
    06:00 +16°C° 0 mm 7 m/s 748 mmHg 77%
    07:00 +16°C° 0 mm 7 m/s 748 mmHg 72%
    08:00 +17°C° 0 mm 8 m/s 748 mmHg 68%
    09:00 +18°C° 0 mm 8 m/s 748 mmHg 63%
    10:00 +20°C° 0 mm 8 m/s 748 mmHg 56%
    11:00 +22°C° 0 mm 9 m/s 748 mmHg 48%
    12:00 +23°C° 0 mm 9 m/s 748 mmHg 40%
    13:00 +23°C° 0 mm 9 m/s 747 mmHg 38%
    14:00 +24°C° 0 mm 9 m/s 747 mmHg 36%
    15:00 +24°C° 0 mm 9 m/s 747 mmHg 34%
    16:00 +23°C° 0 mm 9 m/s 747 mmHg 36%
    17:00 +22°C° 0 mm 9 m/s 746 mmHg 38%
    18:00 +22°C° 0 mm 9 m/s 746 mmHg 40%
    19:00 +21°C° 0 mm 10 m/s 747 mmHg 42%
    20:00 +21°C° 0 mm 10 m/s 747 mmHg 43%
    21:00 +21°C° 0 mm 11 m/s 747 mmHg 44%
    22:00 +19°C° 0.3 mm 11 m/s 747 mmHg 49%
    23:00 +19°C° 0.3 mm 11 m/s 747 mmHg 55%
    Arată mai mult